Regional Weather Roundup
Issued by NWS Lake Charles, LA

Home | Current Version | Previous Version | Text Only | Print | Product List | Glossary On
Versions: 1 2 3 4 5 6 7 8 9 10 11 12 13 14 15 16 17 18 19 20 21 22 23 24 25 26 27 28 29 30 31 32 33 34 35 36 37 38 39 40 41 42 43 44 45 46 47 48 49 50
000
ASUS44 KLCH 311610
RWRLCH
REGIONAL WEATHER ROUNDUP
NATIONAL WEATHER SERVICE LAKE CHARLES LA
1100 AM CDT WED AUG 31 2016

Note: "fair" indicates few or no clouds below 12,000 feet with no
significant weather and/or obstructions to visibility.


ACROSS SOUTHEAST TEXAS

CITY           SKY/WX    TMP DP  RH WIND       PRES   REMARKS
BEAUMONT       SUNNY     91  75  59 NE9       29.92S HX 101
BEAUMONT CITY  FAIR      91  74  58 N7        29.94R HX 100
ORANGE         SUNNY     89  71  55 NE6       29.94S
JASPER         SUNNY     89  76  63 N5        29.97S HX 100
$$

ACROSS CENTRAL LOUISIANA

CITY           SKY/WX    TMP DP  RH WIND       PRES   REMARKS
LEESVILLE      MOSUNNY   89  74  61 NE7       29.94S
FULLERTON      FAIR      89  75  63 VRB5      29.92S
ALEXANDRIA INT SUNNY     89  74  60 N6        29.93S
ESLER FIELD    SUNNY     90  74  59 NE6       29.95R
DERIDDER       FAIR      89  73  60 CALM      29.96S
OAKDALE        SUNNY     89  75  63 NE3       29.94R
OPELOUSAS      FAIR      88  74  63 N10       29.93S
$$

ACROSS SOUTHWEST AND SOUTH CENTRAL LOUISIANA

CITY           SKY/WX    TMP DP  RH WIND       PRES   REMARKS
SULPHUR        SUNNY     91  73  55 NE8       29.93S
LAKE CHARLES   SUNNY     90  74  59 NE8       29.92R
CHENNAULT INT  NOT AVBL
CAMERON PHI    SUNNY     88  77  70 NE8       29.91S HX 100
DEQUINCY       FAIR      88  74  64 CALM      29.94S
JENNINGS       FAIR      88  73  62 NE7       29.93R
LAFAYETTE      SUNNY     90  74  59 NE10      29.92R
NEW IBERIA     SUNNY     90  73  57 NE10      29.92R
ABBEVILLE      FAIR      89  75  63 NE8       29.92R
PATTERSON      SUNNY     89  76  65 NE12      29.90S HX 100
SALT POINT       N/A     90  74  59 VRB3      29.88S
$$

SELECTED SITES ACROSS THE REGION

CITY           SKY/WX    TMP DP  RH WIND       PRES   REMARKS
HOUSTON BUSH   MOSUNNY   89  76  65 VRB6      29.94R HX 100
HOUSTON HOBBY  MOSUNNY   89  76  65 NE8       29.93R HX 100
GALVESTON      SUNNY     87  79  76 N9        29.93S HX 101
COLLEGE STAT   SUNNY     87  77  72 VRB6      29.98R
CONROE         SUNNY     88  76  67 NE6       29.96R
HUNTSVILLE     SUNNY     88  73  61 NE5       29.97R
LUFKIN         SUNNY     89  73  59 NE6       29.96S
SHREVEPORT     SUNNY     90  76  63 NE6       29.97S HX 101
MONROE         SUNNY     91  76  61 NE5       29.96S HX 103
NATCHEZ MS     SUNNY     88  73  62 N6        29.94S
BATON ROUGE    SUNNY     89  73  59 N8        29.92R
N.O. INTL ARPT MOSUNNY   90  76  63 NE12      29.89S HX 101
SLIDELL        SUNNY     89  74  60 NE10      29.89S
$$

MARINE REPORTS

STATION/POSITION TIME  SKY/WX   TEMP    WIND        PRES    VSBY
                                AIR SEA DIR/SP/G
                 (UTC)          (F)     (DEG/KT/KT) (MB)    (MI)
BUOY 30 S HIGH I 1550            83 85   10/ 10/ 12 1013.1R
WVE H/P(F/S)=  3/ 9

SEA RIM ST PARK  1500            84      20/  4/  6 1013.7R
PORT ARTHUR      1500               85   30/  4/  5 1013.3R
SABINE PASS N    1500            84 85   10/  9/ 11 1014.6R
TEXAS POINT      NOT AVBL
CALCASIEU PASS   1500            84 85   30/  8/  9 1012.4R
LK CHARLES BEACH 1500            84 80              1013.7R
MARSH ISLAND     1500            84                   N/A
FRESH WATER LOCK 1500            84 84   40/  7/ 10 1013.2R
AMERADA PASS     1500            85 83   60/  5/  8 1012.1R
$$



USA.gov is the U.S. government's official web portal to all federal, state and local government web resources and services.